{"data":{"norad_id":60065,"epoch":"2026-05-25T02:10:05.649888Z","epoch_age_seconds":77300,"freshness":"FRESH","line1":"1 60065U 24113G   26145.09034317  .00003328  00000+0  32332-4 0  9995","line2":"2 60065  53.1587 174.3732 0001049  82.4797 277.6340 15.69696295111567","mean_motion":15.69696295,"eccentricity":0.0001049,"inclination_deg":53.1587,"raan_deg":174.3732,"arg_perigee_deg":82.4797,"mean_anomaly_deg":277.634,"bstar":3.2332e-5,"rev_number":11156,"period_min":91.737491168634,"perigee_km":359.05916314767,"apogee_km":360.4727751906,"semimajor_km":6737.9029691691,"source":"CELESTRAK","updated_at":"2026-05-25T13:38:19.157777Z"}}